Location: �clusier
(49.9361°N, 2.7869°E)
Time: 05:14:14
(UTC+00:00)

Cosmos 2016 Rocket - Pass Details

Date: 26 October 2021
Orbit: 947 x 1000 km, 83.0° (Epoch: 05 December)

Event Time Altitude Azimuth Distance (km) Brightness Sun altitude
Rises 20:01:49 0° 200° (SSW) 3,653 7.0 -33.3°
Enters shadow 20:02:54 - 202° (SSW) 3,250 6.7 -33.4°
Exits shadow 20:11:51 48° 331° (NNW) 1,240 4.7 -34.8°
Drops below altitude 10° 20:16:32 10° 3° (N) 2,690 6.5 -35.5°
Sets 20:19:04 0° 8° (N) 3,636 7.2 -35.8°
